Time,TemperatureF,DewpointF,PressureIn,WindDirection,WindDirectionDegrees,WindSpeedMPH,WindSpeedGustMPH,Humidity,HourlyPrecipIn,Conditions,Clouds,dailyrainin,SoftwareType,DateUTC
2013-04-07 02:39:00,35.2,26.0,30.16,North,360,6.0,-999.0,68,-99.99,,,0.00,weatherlink.com 1.10,2013-04-07 08:39:00,
2013-04-07 02:48:00,35.5,25.0,30.16,North,360,3.0,-999.0,66,-99.99,,,0.00,weatherlink.com 1.10,2013-04-07 08:48:00,
2013-04-07 03:03:00,36.0,25.0,30.16,North,360,5.0,-999.0,65,-99.99,,,0.00,weatherlink.com 1.10,2013-04-07 09:03:00,
2013-04-07 03:18:00,35.7,25.0,30.15,North,360,6.0,-999.0,65,-99.99,,,0.00,weatherlink.com 1.10,2013-04-07 09:18:00,
2013-04-07 03:33:00,35.7,25.0,30.15,North,360,3.0,-999.0,66,-99.99,,,0.00,weatherlink.com 1.10,2013-04-07 09:33:00,
2013-04-07 03:48:00,35.5,25.0,30.14,North,360,4.0,-999.0,66,-99.99,,,0.00,weatherlink.com 1.10,2013-04-07 09:48:00,
2013-04-07 04:03:00,34.8,26.0,30.14,North,360,2.0,-999.0,69,-99.99,,,0.00,weatherlink.com 1.10,2013-04-07 10:03:00,
2013-04-07 04:18:00,33.7,25.0,30.13,North,360,1.0,-999.0,69,-99.99,,,0.00,weatherlink.com 1.10,2013-04-07 10:18:00,
2013-04-07 04:33:00,31.8,24.0,30.14,North,360,3.0,-999.0,73,-99.99,,,0.00,weatherlink.com 1.10,2013-04-07 10:33:00,
2013-04-07 05:03:00,31.7,25.0,30.14,North,360,4.0,-999.0,75,-99.99,,,0.00,weatherlink.com 1.10,2013-04-07 11:03:00,
2013-04-07 05:19:00,34.6,24.0,30.14,North,360,3.0,-999.0,66,-99.99,,,0.00,weatherlink.com 1.10,2013-04-07 11:19:00,
2013-04-07 06:18:00,34.2,23.0,30.14,North,360,5.0,-999.0,65,-99.99,,,0.00,weatherlink.com 1.10,2013-04-07 12:18:00,
2013-04-07 06:34:00,34.4,23.0,30.14,North,360,4.0,-999.0,64,-99.99,,,0.00,weatherlink.com 1.10,2013-04-07 12:34:00,
2013-04-07 07:04:00,33.1,23.0,30.13,North,360,3.0,-999.0,66,-99.99,,,0.00,weatherlink.com 1.10,2013-04-07 13:04:00,
2013-04-07 07:34:00,33.0,23.0,30.13,North,360,4.0,-999.0,67,-99.99,,,0.00,weatherlink.com 1.10,2013-04-07 13:34:00,
2013-04-07 07:49:00,33.5,23.0,30.13,North,360,6.0,-999.0,66,-99.99,,,0.00,weatherlink.com 1.10,2013-04-07 13:49:00,
2013-04-07 08:04:00,34.4,23.0,30.13,North,360,5.0,-999.0,64,-99.99,,,0.00,weatherlink.com 1.10,2013-04-07 14:04:00,
2013-04-07 08:19:00,34.3,24.0,30.14,North,360,4.0,-999.0,65,-99.99,,,0.00,weatherlink.com 1.10,2013-04-07 14:19:00,
2013-04-07 08:34:00,34.6,25.0,30.13,North,360,3.0,-999.0,67,-99.99,,,0.00,weatherlink.com 1.10,2013-04-07 14:34:00,
2013-04-07 08:49:00,36.6,26.0,30.12,North,360,2.0,-999.0,66,-99.99,,,0.00,weatherlink.com 1.10,2013-04-07 14:49:00,
2013-04-07 09:04:00,39.9,25.0,30.11,North,360,1.0,-999.0,55,-99.99,,,0.00,weatherlink.com 1.10,2013-04-07 15:04:00,
2013-04-07 09:19:00,42.4,25.0,30.11,North,360,5.0,-999.0,51,-99.99,,,0.00,weatherlink.com 1.10,2013-04-07 15:19:00,
2013-04-07 09:34:00,42.5,25.0,30.11,North,360,4.0,-999.0,50,-99.99,,,0.00,weatherlink.com 1.10,2013-04-07 15:34:00,
2013-04-07 09:49:00,42.5,27.0,30.11,North,360,4.0,-999.0,54,-99.99,,,0.00,weatherlink.com 1.10,2013-04-07 15:49:00,
2013-04-07 10:04:00,42.6,25.0,30.11,North,360,0.0,-999.0,51,-99.99,,,0.00,weatherlink.com 1.10,2013-04-07 16:04:00,
2013-04-07 10:19:00,43.1,29.0,30.11,North,360,2.0,-999.0,59,-99.99,,,0.00,weatherlink.com 1.10,2013-04-07 16:19:00,
2013-04-07 10:34:00,42.9,27.0,30.11,North,360,3.0,-999.0,53,-99.99,,,0.00,weatherlink.com 1.10,2013-04-07 16:34:00,
2013-04-07 10:49:00,44.4,25.0,30.10,North,360,5.0,-999.0,47,-99.99,,,0.00,weatherlink.com 1.10,2013-04-07 16:49:00,
2013-04-07 11:04:00,45.3,26.0,30.10,North,360,5.0,-999.0,48,-99.99,,,0.00,weatherlink.com 1.10,2013-04-07 17:04:00,
2013-04-07 11:19:00,47.0,28.0,30.10,North,360,3.0,-999.0,48,-99.99,,,0.00,weatherlink.com 1.10,2013-04-07 17:19:00,
2013-04-07 11:34:00,47.8,26.0,30.10,North,360,4.0,-999.0,43,-99.99,,,0.00,weatherlink.com 1.10,2013-04-07 17:34:00,
2013-04-07 12:04:00,49.0,26.0,30.09,North,360,5.0,-999.0,41,-99.99,,,0.01,weatherlink.com 1.10,2013-04-07 18:04:00,
2013-04-07 12:19:00,49.3,26.0,30.09,North,360,5.0,-999.0,41,-99.99,,,0.01,weatherlink.com 1.10,2013-04-07 18:19:00,
2013-04-07 12:34:00,50.3,26.0,30.09,North,360,10.0,-999.0,39,-99.99,,,0.01,weatherlink.com 1.10,2013-04-07 18:34:00,
2013-04-07 12:49:00,50.6,26.0,30.08,North,360,10.0,-999.0,38,-99.99,,,0.01,weatherlink.com 1.10,2013-04-07 18:49:00,
2013-04-07 13:04:00,51.0,25.0,30.07,North,360,5.0,-999.0,37,-99.99,,,0.01,weatherlink.com 1.10,2013-04-07 19:04:00,
2013-04-07 13:19:00,51.4,25.0,30.07,North,360,11.0,-999.0,36,-99.99,,,0.01,weatherlink.com 1.10,2013-04-07 19:19:00,
2013-04-07 13:34:00,51.4,25.0,30.05,North,360,13.0,-999.0,36,-99.99,,,0.01,weatherlink.com 1.10,2013-04-07 19:34:00,
2013-04-07 13:49:00,52.7,26.0,30.05,North,360,4.0,-999.0,35,-99.99,,,0.01,weatherlink.com 1.10,2013-04-07 19:49:00,
2013-04-07 14:05:00,52.6,25.0,30.03,North,360,0.0,-999.0,35,-99.99,,,0.01,weatherlink.com 1.10,2013-04-07 20:05:00,
2013-04-07 14:20:00,52.6,25.0,30.03,North,360,5.0,-999.0,35,-99.99,,,0.01,weatherlink.com 1.10,2013-04-07 20:20:00,
2013-04-07 14:35:00,51.2,25.0,30.02,North,360,9.0,-999.0,36,-99.99,,,0.01,weatherlink.com 1.10,2013-04-07 20:35:00,
2013-04-07 14:50:00,51.0,24.0,30.02,North,360,3.0,-999.0,35,-99.99,,,0.01,weatherlink.com 1.10,2013-04-07 20:50:00,
2013-04-07 15:05:00,52.0,24.0,30.01,North,360,5.0,-999.0,34,-99.99,,,0.01,weatherlink.com 1.10,2013-04-07 21:05:00,
2013-04-07 15:20:00,53.2,22.0,30.00,North,360,7.0,-999.0,29,-99.99,,,0.01,weatherlink.com 1.10,2013-04-07 21:20:00,
2013-04-07 15:35:00,52.3,22.0,29.99,North,360,3.0,-999.0,31,-99.99,,,0.01,weatherlink.com 1.10,2013-04-07 21:35:00,
2013-04-07 15:50:00,53.7,22.0,29.99,North,360,9.0,-999.0,29,-99.99,,,0.01,weatherlink.com 1.10,2013-04-07 21:50:00,
2013-04-07 16:05:00,54.0,21.0,29.98,North,360,16.0,-999.0,28,-99.99,,,0.01,weatherlink.com 1.10,2013-04-07 22:05:00,
2013-04-07 16:20:00,53.2,21.0,29.98,North,360,9.0,-999.0,28,-99.99,,,0.01,weatherlink.com 1.10,2013-04-07 22:20:00,
2013-04-07 16:35:00,52.6,20.0,29.98,North,360,14.0,-999.0,28,-99.99,,,0.01,weatherlink.com 1.10,2013-04-07 22:35:00,
2013-04-07 16:50:00,53.3,22.0,29.98,North,360,5.0,-999.0,30,-99.99,,,0.01,weatherlink.com 1.10,2013-04-07 22:50:00,
2013-04-07 17:22:00,51.8,18.0,29.98,North,360,6.0,-999.0,26,-99.99,,,0.01,weatherlink.com 1.10,2013-04-07 23:22:00,
2013-04-07 17:35:00,51.2,18.0,29.98,North,360,5.0,-999.0,27,-99.99,,,0.01,weatherlink.com 1.10,2013-04-07 23:35:00,
2013-04-07 17:50:00,50.5,18.0,29.98,North,360,5.0,-999.0,28,-99.99,,,0.01,weatherlink.com 1.10,2013-04-07 23:50:00,
2013-04-07 18:05:00,50.1,19.0,29.98,North,360,2.0,-999.0,29,-99.99,,,0.01,weatherlink.com 1.10,2013-04-08 00:05:00,
2013-04-07 18:20:00,50.1,20.0,29.98,North,360,6.0,-999.0,30,-99.99,,,0.01,weatherlink.com 1.10,2013-04-08 00:20:00,
2013-04-07 18:35:00,49.6,20.0,29.97,North,360,4.0,-999.0,31,-99.99,,,0.01,weatherlink.com 1.10,2013-04-08 00:35:00,
2013-04-07 18:50:00,49.8,19.0,29.96,North,360,6.0,-999.0,30,-99.99,,,0.01,weatherlink.com 1.10,2013-04-08 00:50:00,
2013-04-07 19:05:00,49.2,20.0,29.96,North,360,5.0,-999.0,31,-99.99,,,0.01,weatherlink.com 1.10,2013-04-08 01:05:00,
2013-04-07 19:21:00,48.7,18.0,29.96,North,360,5.0,-999.0,29,-99.99,,,0.01,weatherlink.com 1.10,2013-04-08 01:21:00,
2013-04-07 19:35:00,47.5,17.0,29.96,North,360,2.0,-999.0,30,-99.99,,,0.01,weatherlink.com 1.10,2013-04-08 01:35:00,
2013-04-07 19:51:00,45.9,17.0,29.96,North,360,4.0,-999.0,31,-99.99,,,0.01,weatherlink.com 1.10,2013-04-08 01:51:00,
2013-04-07 20:05:00,44.4,18.0,29.96,North,360,5.0,-999.0,35,-99.99,,,0.01,weatherlink.com 1.10,2013-04-08 02:05:00,
2013-04-07 20:20:00,43.6,18.0,29.96,North,360,4.0,-999.0,36,-99.99,,,0.01,weatherlink.com 1.10,2013-04-08 02:20:00,
2013-04-07 20:36:00,43.2,17.0,29.96,North,360,3.0,-999.0,35,-99.99,,,0.01,weatherlink.com 1.10,2013-04-08 02:36:00,
2013-04-07 20:51:00,43.7,19.0,29.96,North,360,5.0,-999.0,37,-99.99,,,0.01,weatherlink.com 1.10,2013-04-08 02:51:00,
2013-04-07 21:06:00,44.2,19.0,29.97,North,360,4.0,-999.0,36,-99.99,,,0.01,weatherlink.com 1.10,2013-04-08 03:06:00,
2013-04-07 21:21:00,44.4,19.0,29.97,North,360,3.0,-999.0,37,-99.99,,,0.01,weatherlink.com 1.10,2013-04-08 03:21:00,
2013-04-07 21:36:00,44.4,18.0,29.97,North,360,6.0,-999.0,35,-99.99,,,0.01,weatherlink.com 1.10,2013-04-08 03:36:00,
2013-04-07 21:51:00,43.9,18.0,29.96,North,360,4.0,-999.0,36,-99.99,,,0.01,weatherlink.com 1.10,2013-04-08 03:51:00,
2013-04-07 22:06:00,43.0,18.0,29.96,North,360,6.0,-999.0,36,-99.99,,,0.01,weatherlink.com 1.10,2013-04-08 04:06:00,
2013-04-07 22:21:00,42.2,17.0,29.95,North,360,6.0,-999.0,37,-99.99,,,0.01,weatherlink.com 1.10,2013-04-08 04:21:00,
2013-04-07 22:36:00,40.9,17.0,29.95,North,360,7.0,-999.0,38,-99.99,,,0.01,weatherlink.com 1.10,2013-04-08 04:36:00,
2013-04-07 22:51:00,40.3,16.0,29.94,North,360,6.0,-999.0,38,-99.99,,,0.01,weatherlink.com 1.10,2013-04-08 04:51:00,
2013-04-07 23:06:00,38.1,16.0,29.93,North,360,6.0,-999.0,41,-99.99,,,0.01,weatherlink.com 1.10,2013-04-08 05:06:00,
2013-04-07 23:36:00,38.2,14.0,29.92,North,360,5.0,-999.0,38,-99.99,,,0.01,weatherlink.com 1.10,2013-04-08 05:36:00,